EW7664 Weather Reports


time (UTC)temp
F
wind
direction
speed
knots
gust
knots
rain 1hr
in
rain 24hr
in
rain mn
in
humidity
%
barometer
mb
20260504050535 41 140 0.0 0.0 0.00 0.00 0.00 60 1014.1
20260504045535 41 140 0.0 0.0 0.00 0.00 0.00 59 1014.2
20260504045035 40 140 0.0 0.0 0.00 0.00 0.00 60 1014.4
20260504044535 40 140 0.0 0.0 0.00 0.00 0.00 59 1014.5
20260504043036 40 140 0.0 0.0 0.00 0.00 0.00 59 1014.4
20260504042535 40 140 0.0 0.0 0.00 0.00 0.00 59 1014.3
20260504042035 40 140 0.0 0.0 0.00 0.00 0.00 59 1014.4
20260504041535 40 140 0.0 0.0 0.00 0.00 0.00 59 1014.2
20260504041035 40 140 0.0 0.0 0.00 0.00 0.00 59 1014.3
20260504040535 40 140 0.0 0.0 0.00 0.00 0.00 58 1014.3
20260504040035 40 140 0.0 0.0 0.00 0.00 0.00 58 1014.2
20260504035535 40 140 0.0 0.0 0.00 0.00 0.00 58 1014.2
20260504035035 40 140 0.0 0.0 0.00 0.00 0.00 58 1014.2
20260504033504 41 140 0.0 0.0 0.00 0.00 0.00 57 1014.1
20260504033025 41 140 0.0 0.0 0.00 0.00 0.00 57 1014.1
20260504032539 41 140 0.0 0.0 0.00 0.00 0.00 57 1014.1
20260504032045 41 140 0.0 0.0 0.00 0.00 0.00 58 1014.1
20260504031525 41 140 0.0 0.0 0.00 0.00 0.00 57 1013.9
20260504030024 41 140 0.0 0.0 0.00 0.00 0.00 56 1013.9
20260504025023 41 140 0.0 0.0 0.00 0.00 0.00 56 1013.9
20260504024524 42 136 0.0 0.0 0.00 0.00 0.00 55 1013.9
20260504024023 42 136 0.0 0.0 0.00 0.00 0.00 55 1013.9
20260504022503 42 136 0.0 0.0 0.00 0.00 0.00 55 1013.8
20260504022003 42 136 0.0 0.0 0.00 0.00 0.00 55 1013.9
20260504021524 42 136 0.0 0.0 0.00 0.00 0.00 54 1013.9
20260504021023 43 136 0.0 0.0 0.00 0.00 0.00 53 1013.8
20260504020508 43 136 0.0 0.0 0.00 0.00 0.00 53 1013.6
20260504020023 43 136 0.0 0.0 0.00 0.00 0.00 53 1013.7
20260504015524 43 136 0.0 0.0 0.00 0.00 0.00 54 1013.6
20260504015023 43 136 0.0 0.0 0.00 0.00 0.00 53 1013.5
20260504014523 43 136 0.0 0.0 0.00 0.00 0.00 52 1013.4
20260504014003 44 136 0.0 0.0 0.00 0.00 0.00 52 1013.4
20260504013524 44 136 0.0 0.0 0.00 0.00 0.00 51 1013.4
20260504013024 44 136 0.0 0.0 0.00 0.00 0.00 51 1013.3
20260504012503 44 136 0.0 0.0 0.00 0.00 0.00 50 1013.3
20260504012024 45 136 0.0 0.0 0.00 0.00 0.00 49 1013.2
20260504011524 45 136 0.0 0.0 0.00 0.00 0.00 48 1013.2
20260504010029 46 136 0.0 0.0 0.00 0.00 0.00 46 1013.2
20260504005504 47 136 0.0 0.0 0.00 0.00 0.00 44 1013.1
20260504004503 48 136 0.0 0.0 0.00 0.00 0.00 43 1013.0
20260504004003 49 136 0.0 0.0 0.00 0.00 0.00 43 1013.0
20260504003523 49 136 0.0 0.0 0.00 0.00 0.00 42 1012.8
20260504002503 50 136 0.0 0.0 0.00 0.00 0.00 41 1012.8
20260504001503 51 135 0.0 0.0 0.00 0.00 0.00 37 1012.9
20260504001023 52 135 0.0 0.0 0.00 0.00 0.00 37 1013.0
20260504000523 52 135 0.0 0.0 0.00 0.00 0.00 37 1012.9
20260504000003 53 135 0.0 0.0 0.00 0.00 0.00 37 1012.8
20260503235002 55 135 0.0 0.0 0.00 0.00 0.00 35 1012.8
20260503234504 55 133 0.0 0.0 0.00 0.00 0.00 32 1012.7
20260503234003 56 133 0.0 0.0 0.00 0.00 0.00 28 1012.7
20260503233503 56 133 0.0 0.0 0.00 0.00 0.00 26 1012.7
20260503233003 57 133 0.0 0.0 0.00 0.00 0.00 24 1012.6
20260503232503 57 133 0.0 0.0 0.00 0.00 0.00 24 1012.6
20260503231504 58 133 0.0 0.0 0.00 0.00 0.00 22 1012.6
20260503231004 58 133 0.0 0.0 0.00 0.00 0.00 22 1012.5
20260503230503 58 133 0.0 0.0 0.00 0.00 0.00 23 1012.5
20260503230004 58 136 0.0 0.0 0.00 0.00 0.00 22 1012.4
20260503225503 58 136 0.0 0.0 0.00 0.00 0.00 23 1012.5
20260503225002 58 136 0.0 0.0 0.00 0.00 0.00 21 1012.5
20260503224503 58 136 0.0 0.0 0.00 0.00 0.00 22 1012.5
20260503224002 59 136 0.0 0.0 0.00 0.00 0.00 20 1012.4
20260503223502 59 136 0.0 0.0 0.00 0.00 0.00 21 1012.4
20260503223002 59 136 0.0 0.0 0.00 0.00 0.00 19 1012.4
20260503222502 59 138 0.0 0.9 0.00 0.00 0.00 21 1012.5
20260503222003 59 138 0.0 0.9 0.00 0.00 0.00 21 1012.5
20260503221503 59 138 0.0 2.6 0.00 0.00 0.00 21 1012.6
20260503221004 60 129 0.9 6.1 0.00 0.00 0.00 19 1012.5
20260503220503 60 112 0.9 6.1 0.00 0.00 0.00 19 1012.5
20260503215502 60 134 0.0 0.0 0.00 0.00 0.00 20 1012.5
20260503215003 60 134 0.9 3.5 0.00 0.00 0.00 18 1012.6
20260503214502 60 63 0.0 4.3 0.00 0.00 0.00 17 1012.6
20260503214003 60 90 0.0 3.5 0.00 0.00 0.00 18 1012.7
20260503213503 60 175 0.0 5.2 0.00 0.00 0.00 18 1012.5
20260503213003 60 48 0.0 5.2 0.00 0.00 0.00 18 1012.6
20260503212503 60 117 0.0 0.0 0.00 0.00 0.00 19 1012.5
20260503212003 60 117 0.0 5.2 0.00 0.00 0.00 19 1012.5
20260503211003 60 49 0.0 4.3 0.00 0.00 0.00 17 1012.7
20260503210002 60 323 0.0 5.2 0.00 0.00 0.00 18 1012.7
20260503205502 60 113 0.0 5.2 0.00 0.00 0.00 19 1012.7
20260503205002 60 92 0.9 5.2 0.00 0.00 0.00 18 1012.8
20260503204502 60 142 0.9 6.1 0.00 0.00 0.00 18 1012.8
20260503204002 60 146 0.9 6.1 0.00 0.00 0.00 20 1012.7
20260503203503 60 144 0.0 3.5 0.00 0.00 0.00 19 1012.6
20260503203002 60 142 0.9 3.5 0.00 0.00 0.00 19 1012.7
20260503202503 60 152 0.9 3.5 0.00 0.00 0.00 18 1012.8
20260503202003 60 130 0.0 3.5 0.00 0.00 0.00 21 1013.1
20260503201502 60 28 0.0 3.5 0.00 0.00 0.00 19 1013.0
20260503201003 60 133 0.0 3.5 0.00 0.00 0.00 19 1013.0
20260503200504 60 163 0.0 6.1 0.00 0.00 0.00 19 1013.1
20260503200002 60 163 0.0 6.1 0.00 0.00 0.00 19 1013.1
20260503195502 60 127 0.9 6.1 0.00 0.00 0.00 21 1013.3
20260503194503 59 101 0.0 2.6 0.00 0.00 0.00 19 1013.5
20260503194002 60 153 0.0 2.6 0.00 0.00 0.00 18 1013.5
20260503193503 60 120 0.9 3.5 0.00 0.00 0.00 18 1013.6
20260503193003 60 116 0.9 3.5 0.00 0.00 0.00 19 1013.8
20260503192503 60 137 0.9 4.3 0.00 0.00 0.00 17 1013.9
20260503192003 60 194 0.0 4.3 0.00 0.00 0.00 19 1013.8
20260503191503 60 126 0.0 1.7 0.00 0.00 0.00 20 1013.9
20260503190003 60 85 0.0 4.3 0.00 0.00 0.00 18 1014.2
20260503185002 59 149 0.9 10.4 0.00 0.00 0.00 20 1014.2
20260503184502 59 317 1.7 10.4 0.00 0.00 0.00 18 1014.4
20260503184003 59 37 0.0 5.2 0.00 0.00 0.00 21 1014.4
20260503183003 58 88 0.9 3.5 0.00 0.00 0.00 21 1014.5
20260503182504 58 65 1.7 9.6 0.00 0.00 0.00 19 1014.5
20260503182002 58 36 1.7 9.6 0.00 0.00 0.00 20 1014.5
20260503181504 58 132 0.9 4.3 0.00 0.00 0.00 21 1014.5
20260503181003 58 116 0.0 4.3 0.00 0.00 0.00 22 1014.5
20260503180003 59 227 0.0 5.2 0.00 0.00 0.00 22 1014.6
20260503175503 58 109 0.9 4.3 0.00 0.00 0.00 21 1014.6
20260503175003 58 98 0.9 6.1 0.00 0.00 0.00 24 1014.6
20260503174003 58 110 0.9 5.2 0.00 0.00 0.00 25 1014.6
20260503172502 57 171 0.0 2.6 0.00 0.00 0.00 24 1014.9
20260503172003 57 116 0.9 6.1 0.00 0.00 0.00 24 1014.9
20260503171502 57 117 0.9 7.0 0.00 0.00 0.00 26 1015.0
20260503171003 57 44 0.9 7.0 0.00 0.00 0.00 22 1015.2
20260503150503 51 72 0.9 7.8 0.00 0.00 0.00 32 1016.2
20260503130505 48 333 0.0 3.5 0.00 0.00 0.00 39 1016.4
20260503110504 35 130 0.0 0.0 0.00 0.00 0.00 66 1015.6
20260503090503 39 130 0.0 0.0 0.00 0.00 0.00 59 1014.1
20260503080502 38 129 0.0 0.0 0.00 0.00 0.00 61 1013.8
20260503072502 40 129 0.0 0.0 0.00 0.00 0.00 56 1013.5
20260503072002 40 129 0.0 0.0 0.00 0.00 0.00 57 1013.5
20260503071502 40 128 0.0 0.0 0.00 0.00 0.00 56 1013.4
20260503070503 40 128 0.0 0.0 0.00 0.00 0.00 59 1013.3
20260503055002 38 127 0.0 0.0 0.00 0.00 0.00 60 1013.0
20260503054502 38 127 0.0 0.0 0.00 0.00 0.00 60 1013.0
20260503054002 38 127 0.0 0.0 0.00 0.00 0.00 60 1013.1
20260503053003 39 126 0.0 0.0 0.00 0.00 0.00 58 1013.2
20260503052502 39 126 0.0 0.0 0.00 0.00 0.00 57 1013.1